Regional Weather Roundup
Issued by NWS State College, PA

Home | Current Version | Previous Version | Graphics & Text | Print | Product List | Glossary Off
Versions: 1 2 3 4 5 6 7 8 9 10 11 12 13 14 15 16 17 18 19 20 21 22 23 24 25 26 27 28 29 30 31 32 33 34 35 36 37 38 39 40 41 42 43 44 45 46 47 48 49 50

000
ASUS41 KCTP 212103
RWRCTP

REGIONAL WEATHER ROUNDUP
NATIONAL WEATHER SERVICE STATE COLLEGE PA
400 PM EST SAT JAN 21 2017

Note: "fair" indicates few or no clouds below 12,000 feet with no
significant weather and/or obstructions to visibility.

* = STATION THAT DOES NOT REPORT PRECIPITATION /E.G. RAIN...SNOW...ETC/
    THUNDER OR FOG.

PAZ002>004-007>009-013>016-020>023-029>032-212200-
WESTERN PENNSYLVANIA

CITY           SKY/WX    TMP DP  RH WIND       PRES   REMARKS
ERIE           MOSUNNY   63  50  62 S12       29.66S
MEADVILLE      PTSUNNY   59  49  69 S6        29.68S
FRANKLIN*        N/A     57  52  82 S7        29.70F
NEW CASTLE     FAIR      62  52  69 SW6       29.69S
BEAVER COUNTY  SUNNY     61  50  67 SW10      29.68F
BUTLER*        MOSUNNY   61  50  67 S6        29.71F
PITTSBURGH INT CLOUDY    63  51  65 SW10      29.68F
PITTSBURGH     MOSUNNY   63  47  55 S7        29.68F
INDIANA*       PTSUNNY   63  50  63 SW6       29.73F
LATROBE        PTSUNNY   63  50  63 SW9       29.71F
WASHINGTON CO* MOSUNNY   63  48  59 S3        29.70S
$$

PAZ004>006-010>012-017>019-024>028-033>037-041-042-045-046-049>053-212200-
CENTRAL PENNSYLVANIA

CITY           SKY/WX    TMP DP  RH WIND       PRES   REMARKS
BRADFORD       MOSUNNY   57  49  74 S5        29.71F
DUBOIS         SUNNY     61  46  57 SW7       29.70F
CLEARFIELD     SUNNY     52  49  89 NE5       29.72F
JOHNSTOWN      MOSUNNY   59  46  62 SW10      29.72F
ALTOONA        FOG       46  45  96 NE3       29.75S VSB 1/4
STATE COLLEGE  FOG       45  45 100 CALM      29.76F VSB 1/2
WILLIAMSPORT   CLOUDY    45  43  93 E3        29.80F FOG
SELINSGROVE    FOG       42  42 100 SE6       29.82F VSB 1
FT INDIANTOWN  CLOUDY    43  43 100 CALM      29.81F FOG
CAPITAL CITY   FOG       46  44  93 SE3       29.81F VSB 1/4
HARRISBURG     FOG       44  44 100 CALM      29.81F VSB<1/4
YORK           CLOUDY    48  48 100 CALM      29.80F FOG
$$

PAZ038>040-043-044-047-048-054-055-060>062-067>071-212200-
EASTERN PENNSYLVANIA

CITY           SKY/WX    TMP DP  RH WIND       PRES   REMARKS
SCRANTON       CLOUDY    46  45  96 CALM      29.79F FOG
MOUNT POCONO   PTCLDY    54  45  71 W8        29.78S
ALLENTOWN      FOG       47  44  90 W6        29.82S VSB 1
QUAKERTOWN*    CLOUDY    45  45 100 CALM      29.83F VSB<1/4
READING        CLOUDY    46  46 100 CALM      29.82F FOG
LANCASTER      CLOUDY    46  46 100 CALM      29.82F FOG
COATESVILLE    FOG       46  46 100 CALM      29.83F VSB<1/4
POTTSTOWN      CLOUDY    45  45 100 CALM      29.84F FOG
BLUE BELL      CLOUDY    45  45 100 CALM      29.82F
DOYLESTOWN     CLOUDY    46  45  96 W5        29.82S FOG
WILLOW GROVE   NOT AVBL
NORTH PHILA    CLOUDY    48  46  93 VRB5      29.85S FOG
PHILADELPHIA   FOG       46  45  96 SW6       29.84S VSB 3/4
$$




USA.gov is the U.S. government's official web portal to all federal, state and local government web resources and services.